Regional Weather Roundup
Issued by NWS Goodland, KS

Home | Current Version | Previous Version | Graphics & Text | Print | Product List | Glossary On
Versions: 1 2 3 4 5 6 7 8 9 10 11 12 13 14 15 16 17 18 19 20 21 22 23 24 25 26 27 28 29 30 31 32 33 34 35 36 37 38 39 40 41 42 43 44 45 46 47 48 49 50
547
ASUS43 KGLD 202008
RWRGLD

GOODLAND FORECAST AREA HOURLY WEATHER ROUNDUP
NATIONAL WEATHER SERVICE GOODLAND KS
100 PM MST FRI JAN 20 2017

...OFFICIAL OBSERVATIONS...

CITY           SKY/WX    TMP DP  RH WIND       PRES   REMARKS
GOODLAND KS    LGT SNOW  34  31  88 CALM      29.39F FOG
HILL CITY KS   CLOUDY    43  40  89 SW6       29.41S
IMPERIAL NEB   SUNNY     40  34  79 SE6       29.36F
MCCOOK NEB     CLOUDY    37  35  92 SW6       29.39F
AKRON CO       CLOUDY    38  31  76 W16       29.37F
BURLINGTON CO  LGT SNOW  34  32  92 NW14      29.40F VSB 3/4
LIMON CO       LGT SNOW  33  33 100 W10       29.41F FOG
$$

...UNOFFICIAL OBSERVATIONS...

CITY           SKY/WX    TMP DP  RH WIND       PRES   REMARKS
LENORA KS        N/A     40  32  73 CALM        N/A
NORTON KS      CLOUDY    39  36  87 W5        29.39R
SHARON SPRINGS   N/A     37  36  96 N8          N/A
KIT CARSON CO    N/A     36  30  80 MISG        N/A
YUMA CO        CLOUDY    37  32  81 W9        29.37F
$$




USA.gov is the U.S. government's official web portal to all federal, state and local government web resources and services.